This demonstration page uses our WeatherBlox Daily Observations layout. Learn more.

Left ArrowRight Arrow

Hourly Observations for May 5, 2021

Temp ( °F °C ) Dew Point ( °F °C ) Humidity (%) Winds ( mph kmh ) Pressure ( in mb ) Visibility ( mi km ) Precip ( " mm )
12:53 am 00:53 Clear 61 16.1 44 6.7 54 54 SE 10 17 30.00 1016 10 16 0.00 0.00
1:53 am 01:53 Clear 59 15 44 6.7 58 58 ESE 9 15 30.00 1016 10 16 0.00 0.00
2:53 am 02:53 Clear 56 13.3 44 6.7 65 65 SE 6 9 29.99 1016 10 16 0.00 0.00
3:53 am 03:53 Clear 54 12.2 44 6.7 69 69 SE 7 11 29.99 1016 10 16 0.00 0.00
4:53 am 04:53 Clear 54 12.2 45 7.2 72 72 ESE 7 11 30.00 1016 10 16 0.00 0.00
5:53 am 05:53 Clear 54 12.2 46 7.8 75 75 ESE 7 11 30.00 1016 10 16 0.00 0.00
6:53 am 06:53 Clear 53 11.7 46 7.8 77 77 ESE 7 11 30.01 1016 10 16 0.00 0.00
7:53 am 07:53 Sunny 57 13.9 47 8.3 69 69 ESE 10 17 30.04 1017 10 16 0.00 0.00
8:53 am 08:53 Sunny 62 16.7 48 8.9 60 60 SE 20 31 30.06 1018 10 16 0.00 0.00
9:53 am 09:53 Sunny 66 18.9 48 8.9 52 52 SE 20 31 30.05 1018 10 16 0.00 0.00
10:53 am 10:53 Sunny 70 21.1 48 8.9 46 46 SE 20 31 30.04 1017 10 16 0.00 0.00
11:53 am 11:53 Sunny 75 23.9 47 8.3 37 37 SSE 17 28 30.03 1017 10 16 0.00 0.00
12:53 pm 12:53 Sunny 78 25.6 47 8.3 33 33 SE 17 28 30.01 1016 10 16 0.00 0.00
1:53 pm 13:53 Sunny 80 26.7 45 7.2 29 29 SSE 16 26 29.98 1015 10 16 0.00 0.00
2:53 pm 14:53 Sunny 84 28.9 43 6.1 24 24 S 14 22 29.96 1014 10 16 0.00 0.00
3:53 pm 15:53 Sunny 87 30.6 42 5.6 21 21 SSE 13 20 29.93 1014 10 16 0.00 0.00
4:53 pm 16:53 Sunny 88 31.1 40 4.4 18 18 S 15 24 29.89 1012 10 16 0.00 0.00
5:53 pm 17:53 Sunny 87 30.6 37 2.8 17 17 SSE 12 19 29.89 1012 10 16 0.00 0.00
6:53 pm 18:53 Sunny 86 30 40 4.4 20 20 SE 16 26 29.89 1012 10 16 0.00 0.00
7:53 pm 19:53 Sunny 84 28.9 41 5 22 22 SE 15 24 29.88 1012 10 16 0.00 0.00
8:53 pm 20:53 Clear 80 26.7 41 5 25 25 SE 14 22 29.89 1012 10 16 0.00 0.00
9:53 pm 21:53 Clear 76 24.4 41 5 29 29 SE 14 22 29.92 1013 10 16 0.00 0.00
10:53 pm 22:53 Clear 75 23.9 43 6.1 32 32 SSE 16 26 29.94 1014 10 16 0.00 0.00
11:53 pm 23:53 Clear 74 23.3 45 7.2 36 36 SSE 18 30 29.94 1014 10 16 0.00 0.00

Powered by AerisWeather